Time,TemperatureF,DewpointF,PressureIn,WindDirection,WindDirectionDegrees,WindSpeedMPH,WindSpeedGustMPH,Humidity,HourlyPrecipIn,Conditions,Clouds,dailyrainin,SoftwareType,DateUTC
2013-05-01 00:01:00,64.1,61.4,30.06,ESE,103,0.0,0.0,91,0.00,RA,,0.00,WeatherDisplay:10.37,2013-05-01 04:01:00,
2013-05-01 00:06:00,63.9,61.2,30.06,ESE,103,0.0,0.0,91,0.00,RA,,0.00,WeatherDisplay:10.37,2013-05-01 04:06:00,
2013-05-01 00:11:00,63.8,61.1,30.06,ESE,105,0.0,0.0,91,0.00,CLR,,0.00,WeatherDisplay:10.37,2013-05-01 04:11:00,
2013-05-01 00:16:00,63.7,61.0,30.06,ESE,105,0.0,0.0,91,0.00,CLR,,0.00,WeatherDisplay:10.37,2013-05-01 04:16:00,
2013-05-01 00:21:00,63.6,60.9,30.06,ESE,105,0.0,0.0,91,0.00,CLR,,0.00,WeatherDisplay:10.37,2013-05-01 04:21:00,
2013-05-01 00:26:00,63.5,60.8,30.06,ESE,104,0.0,0.0,91,0.00,CLR,,0.00,WeatherDisplay:10.37,2013-05-01 04:26:00,
2013-05-01 00:31:00,63.4,61.0,30.06,ESE,103,0.0,0.0,92,0.00,CLR,,0.00,WeatherDisplay:10.37,2013-05-01 04:31:00,
2013-05-01 00:36:00,63.3,60.9,30.06,ESE,104,0.0,0.0,92,0.00,CLR,,0.00,WeatherDisplay:10.37,2013-05-01 04:36:00,
2013-05-01 00:41:00,63.2,60.8,30.06,ESE,103,0.0,0.0,92,0.00,CLR,,0.00,WeatherDisplay:10.37,2013-05-01 04:41:00,
2013-05-01 00:46:00,63.0,60.6,30.06,ESE,105,0.0,0.0,92,0.00,CLR,,0.00,WeatherDisplay:10.37,2013-05-01 04:46:00,
2013-05-01 00:51:00,62.9,60.5,30.06,ESE,104,0.0,0.0,92,0.00,CLR,,0.00,WeatherDisplay:10.37,2013-05-01 04:51:00,
2013-05-01 00:56:00,63.0,60.6,30.06,ESE,104,0.0,0.0,92,0.00,CLR,,0.00,WeatherDisplay:10.37,2013-05-01 04:56:00,
2013-05-01 01:01:00,63.2,61.1,30.06,ESE,103,0.0,0.0,93,0.00,CLR,,0.00,WeatherDisplay:10.37,2013-05-01 05:01:00,
2013-05-01 01:06:00,63.4,61.6,30.06,ESE,103,0.0,0.0,94,0.00,CLR,,0.00,WeatherDisplay:10.37,2013-05-01 05:06:00,
2013-05-01 01:11:00,63.5,61.7,30.06,ESE,103,0.0,0.0,94,0.00,CLR,,0.00,WeatherDisplay:10.37,2013-05-01 05:11:00,
2013-05-01 01:16:00,63.5,61.7,30.06,ESE,104,0.0,0.0,94,0.00,CLR,,0.00,WeatherDisplay:10.37,2013-05-01 05:16:00,
2013-05-01 01:21:00,63.4,61.6,30.06,ESE,103,0.0,0.0,94,0.00,CLR,,0.00,WeatherDisplay:10.37,2013-05-01 05:21:00,
2013-05-01 01:26:00,63.4,61.6,30.06,NE,40,0.0,0.0,94,0.00,CLR,,0.00,WeatherDisplay:10.37,2013-05-01 05:26:00,
2013-05-01 01:31:00,63.5,61.7,30.06,NE,42,0.0,0.0,94,0.00,CLR,,0.00,WeatherDisplay:10.37,2013-05-01 05:31:00,
2013-05-01 01:36:00,63.5,61.7,30.06,NE,42,0.0,0.0,94,0.00,CLR,,0.00,WeatherDisplay:10.37,2013-05-01 05:36:00,
2013-05-01 01:41:00,63.5,61.7,30.06,NE,42,0.0,0.0,94,0.00,CLR,,0.00,WeatherDisplay:10.37,2013-05-01 05:41:00,
2013-05-01 01:46:00,63.5,61.7,30.06,NE,42,0.0,0.0,94,0.00,CLR,,0.00,WeatherDisplay:10.37,2013-05-01 05:46:00,
2013-05-01 01:51:00,63.4,61.6,30.06,NE,42,0.0,0.0,94,0.00,CLR,,0.00,WeatherDisplay:10.37,2013-05-01 05:51:00,
2013-05-01 01:56:00,63.4,61.6,30.05,NE,42,0.0,0.0,94,0.00,CLR,,0.00,WeatherDisplay:10.37,2013-05-01 05:56:00,
2013-05-01 02:01:00,63.3,61.5,30.05,NE,42,0.0,0.0,94,0.00,CLR,,0.00,WeatherDisplay:10.37,2013-05-01 06:01:00,
2013-05-01 02:06:00,63.3,61.5,30.05,NE,42,0.0,0.0,94,0.00,CLR,,0.00,WeatherDisplay:10.37,2013-05-01 06:06:00,
2013-05-01 02:11:00,63.2,61.4,30.05,NE,40,0.0,0.0,94,0.00,CLR,,0.00,WeatherDisplay:10.37,2013-05-01 06:11:00,
2013-05-01 02:16:00,63.2,61.4,30.04,NE,40,0.0,0.0,94,0.00,CLR,,0.00,WeatherDisplay:10.37,2013-05-01 06:16:00,
2013-05-01 02:21:00,63.1,61.3,30.04,NE,38,0.0,0.0,94,0.00,CLR,,0.00,WeatherDisplay:10.37,2013-05-01 06:21:00,
2013-05-01 02:26:00,63.1,61.6,30.04,NE,39,0.0,0.0,95,0.00,CLR,,0.00,WeatherDisplay:10.37,2013-05-01 06:26:00,
2013-05-01 02:31:00,63.0,61.5,30.04,NE,39,0.0,0.0,95,0.00,CLR,,0.00,WeatherDisplay:10.37,2013-05-01 06:31:00,
2013-05-01 02:36:00,63.0,61.5,30.04,NE,38,0.0,0.0,95,0.00,CLR,,0.00,WeatherDisplay:10.37,2013-05-01 06:36:00,
2013-05-01 02:41:00,63.0,61.5,30.04,NE,38,0.0,0.0,95,0.00,CLR,,0.00,WeatherDisplay:10.37,2013-05-01 06:41:00,
2013-05-01 02:46:00,62.9,61.4,30.04,NE,38,0.0,0.0,95,0.00,CLR,,0.00,WeatherDisplay:10.37,2013-05-01 06:46:00,
2013-05-01 02:51:00,62.9,61.4,30.04,NE,38,0.0,0.0,95,0.00,CLR,,0.00,WeatherDisplay:10.37,2013-05-01 06:51:00,
2013-05-01 02:56:00,62.9,61.4,30.04,NE,39,0.0,0.0,95,0.00,CLR,,0.00,WeatherDisplay:10.37,2013-05-01 06:56:00,
2013-05-01 03:01:00,62.9,61.4,30.04,NE,38,0.0,0.0,95,0.00,CLR,,0.00,WeatherDisplay:10.37,2013-05-01 07:01:00,
2013-05-01 03:06:00,62.8,61.3,30.04,NE,38,0.0,0.0,95,0.00,CLR,,0.00,WeatherDisplay:10.37,2013-05-01 07:06:00,
2013-05-01 03:11:00,62.7,61.2,30.03,NE,38,0.0,0.0,95,0.00,CLR,,0.00,WeatherDisplay:10.37,2013-05-01 07:11:00,
2013-05-01 03:16:00,62.7,61.2,30.03,NE,38,0.0,0.0,95,0.00,CLR,,0.00,WeatherDisplay:10.37,2013-05-01 07:16:00,
2013-05-01 03:21:00,62.6,61.1,30.03,NE,39,0.0,0.0,95,0.00,CLR,,0.00,WeatherDisplay:10.37,2013-05-01 07:21:00,
2013-05-01 03:26:00,62.5,61.0,30.03,NE,38,0.0,0.0,95,0.00,CLR,,0.00,WeatherDisplay:10.37,2013-05-01 07:26:00,
2013-05-01 03:31:00,62.4,60.9,30.03,NE,38,0.0,0.0,95,0.00,CLR,,0.00,WeatherDisplay:10.37,2013-05-01 07:31:00,
2013-05-01 03:36:00,62.3,60.8,30.03,NE,38,0.0,0.0,95,0.00,CLR,,0.00,WeatherDisplay:10.37,2013-05-01 07:36:00,
2013-05-01 03:41:00,62.3,60.8,30.03,NE,38,0.0,0.0,95,0.00,CLR,,0.00,WeatherDisplay:10.37,2013-05-01 07:41:00,
2013-05-01 03:46:00,62.3,60.8,30.03,NE,40,0.0,0.0,95,0.00,CLR,,0.00,WeatherDisplay:10.37,2013-05-01 07:46:00,
2013-05-01 03:51:00,62.3,60.8,30.03,NE,42,0.0,0.0,95,0.00,CLR,,0.00,WeatherDisplay:10.37,2013-05-01 07:51:00,
2013-05-01 03:56:00,62.4,60.9,30.03,NE,40,0.0,0.0,95,0.00,CLR,,0.00,WeatherDisplay:10.37,2013-05-01 07:56:00,
2013-05-01 04:01:00,62.4,60.9,30.03,NE,46,0.0,0.0,95,0.00,CLR,,0.00,WeatherDisplay:10.37,2013-05-01 08:01:00,
2013-05-01 04:06:00,62.4,60.9,30.03,NE,46,0.0,0.0,95,0.00,CLR,,0.00,WeatherDisplay:10.37,2013-05-01 08:06:00,
2013-05-01 04:11:00,62.4,60.9,30.03,NE,46,0.0,0.0,95,0.00,CLR,,0.00,WeatherDisplay:10.37,2013-05-01 08:11:00,
2013-05-01 04:16:00,62.4,60.9,30.03,NE,46,0.0,0.0,95,0.00,CLR,,0.00,WeatherDisplay:10.37,2013-05-01 08:16:00,
2013-05-01 04:21:00,62.4,60.9,30.03,NE,46,0.0,0.0,95,0.00,CLR,,0.00,WeatherDisplay:10.37,2013-05-01 08:21:00,
2013-05-01 04:26:00,62.4,60.9,30.03,NE,46,0.0,0.0,95,0.00,CLR,,0.00,WeatherDisplay:10.37,2013-05-01 08:26:00,
2013-05-01 04:31:00,62.4,60.9,30.03,NE,46,0.0,0.0,95,0.00,CLR,,0.00,WeatherDisplay:10.37,2013-05-01 08:31:00,
2013-05-01 04:36:00,62.5,61.0,30.03,NE,46,0.0,0.0,95,0.00,CLR,,0.00,WeatherDisplay:10.37,2013-05-01 08:36:00,
2013-05-01 04:41:00,62.5,61.0,30.03,NE,49,0.0,0.0,95,0.00,CLR,,0.00,WeatherDisplay:10.37,2013-05-01 08:41:00,
2013-05-01 04:46:00,62.5,61.0,30.03,NE,49,0.0,0.0,95,0.00,CLR,,0.00,WeatherDisplay:10.37,2013-05-01 08:46:00,
2013-05-01 04:51:00,62.5,61.0,30.02,NE,48,0.0,0.0,95,0.00,CLR,,0.00,WeatherDisplay:10.37,2013-05-01 08:51:00,
2013-05-01 04:56:00,62.5,61.0,30.02,NE,49,0.0,0.0,95,0.00,CLR,,0.00,WeatherDisplay:10.37,2013-05-01 08:56:00,
2013-05-01 05:01:00,62.5,61.0,30.02,NE,52,0.0,0.0,95,0.00,CLR,,0.00,WeatherDisplay:10.37,2013-05-01 09:01:00,
2013-05-01 05:06:00,62.5,61.0,30.02,NE,52,0.0,0.0,95,0.00,CLR,,0.00,WeatherDisplay:10.37,2013-05-01 09:06:00,
2013-05-01 05:11:00,62.5,61.0,30.02,NE,52,0.0,0.0,95,0.00,CLR,,0.00,WeatherDisplay:10.37,2013-05-01 09:11:00,
2013-05-01 05:16:00,62.5,61.0,30.03,ENE,64,0.0,0.0,95,0.00,CLR,,0.00,WeatherDisplay:10.37,2013-05-01 09:16:00,
2013-05-01 05:21:00,62.6,61.1,30.03,ENE,63,0.0,0.0,95,0.00,CLR,,0.00,WeatherDisplay:10.37,2013-05-01 09:21:00,
2013-05-01 05:26:00,62.6,61.1,30.03,ENE,61,0.0,0.0,95,0.00,CLR,,0.00,WeatherDisplay:10.37,2013-05-01 09:26:00,
2013-05-01 05:31:00,62.6,61.1,30.03,ENE,63,0.0,0.0,95,0.00,CLR,,0.00,WeatherDisplay:10.37,2013-05-01 09:31:00,
2013-05-01 05:36:00,62.6,61.1,30.03,ENE,68,1.2,0.0,95,0.00,CLR,,0.00,WeatherDisplay:10.37,2013-05-01 09:36:00,
2013-05-01 05:41:00,62.6,61.1,30.03,ENE,62,0.0,0.0,95,0.00,CLR,,0.00,WeatherDisplay:10.37,2013-05-01 09:41:00,
2013-05-01 05:46:00,62.6,61.1,30.03,ENE,67,1.2,0.0,95,0.00,CLR,,0.00,WeatherDisplay:10.37,2013-05-01 09:46:00,
2013-05-01 05:51:00,62.5,61.0,30.02,ENE,61,0.0,0.0,95,0.00,CLR,,0.00,WeatherDisplay:10.37,2013-05-01 09:51:00,
2013-05-01 05:56:00,62.5,61.0,30.02,ENE,61,4.0,4.0,95,0.00,CLR,,0.00,WeatherDisplay:10.37,2013-05-01 09:56:00,
2013-05-01 06:01:00,62.5,60.7,30.03,NE,49,1.2,0.0,94,0.00,CLR,,0.00,WeatherDisplay:10.37,2013-05-01 10:01:00,
2013-05-01 06:06:00,62.4,60.7,30.02,NE,51,0.0,0.0,94,0.00,CLR,,0.00,WeatherDisplay:10.37,2013-05-01 10:06:00,
2013-05-01 06:11:00,62.3,60.6,30.02,NE,50,0.0,0.0,94,0.00,CLR,,0.00,WeatherDisplay:10.37,2013-05-01 10:11:00,
2013-05-01 06:16:00,62.2,60.5,30.02,NE,45,2.0,2.0,94,0.00,CLR,,0.00,WeatherDisplay:10.37,2013-05-01 10:16:00,
2013-05-01 06:21:00,62.2,60.8,30.02,NE,37,1.2,0.0,95,0.00,CLR,,0.00,WeatherDisplay:10.37,2013-05-01 10:21:00,
2013-05-01 06:26:00,62.1,60.7,30.03,NE,38,0.0,0.0,95,0.00,CLR,,0.00,WeatherDisplay:10.37,2013-05-01 10:26:00,
2013-05-01 06:31:00,62.0,60.3,30.03,SE,142,0.0,0.0,94,0.00,CLR,,0.00,WeatherDisplay:10.37,2013-05-01 10:31:00,
2013-05-01 06:36:00,62.0,60.3,30.03,East,84,0.0,0.0,94,0.00,CLR,,0.00,WeatherDisplay:10.37,2013-05-01 10:36:00,
2013-05-01 06:41:00,61.9,60.2,30.04,East,82,0.0,0.0,94,0.00,CLR,,0.00,WeatherDisplay:10.37,2013-05-01 10:41:00,
2013-05-01 06:46:00,61.8,60.1,30.05,East,83,0.0,0.0,94,0.00,CLR,,0.00,WeatherDisplay:10.37,2013-05-01 10:46:00,
2013-05-01 06:51:00,61.8,60.1,30.05,East,82,0.0,0.0,94,0.00,CLR,,0.00,WeatherDisplay:10.37,2013-05-01 10:51:00,
2013-05-01 06:56:00,61.7,60.0,30.05,East,80,0.0,0.0,94,0.00,CLR,,0.00,WeatherDisplay:10.37,2013-05-01 10:56:00,
2013-05-01 07:01:00,61.7,60.3,30.05,East,80,0.0,0.0,95,0.00,CLR,,0.00,WeatherDisplay:10.37,2013-05-01 11:01:00,
2013-05-01 07:06:00,61.7,60.3,30.06,East,80,0.0,0.0,95,0.00,CLR,,0.00,WeatherDisplay:10.37,2013-05-01 11:06:00,
2013-05-01 07:11:00,61.8,60.4,30.06,East,80,0.0,0.0,95,0.00,CLR,,0.00,WeatherDisplay:10.37,2013-05-01 11:11:00,
2013-05-01 07:16:00,61.9,60.5,30.06,East,80,0.0,0.0,95,0.00,CLR,,0.00,WeatherDisplay:10.37,2013-05-01 11:16:00,
2013-05-01 07:21:00,62.0,60.6,30.06,NE,38,3.5,3.5,95,0.00,CLR,,0.00,WeatherDisplay:10.37,2013-05-01 11:21:00,
2013-05-01 07:26:00,62.2,60.8,30.06,NNE,30,3.5,0.0,95,0.00,CLR,,0.00,WeatherDisplay:10.37,2013-05-01 11:26:00,
2013-05-01 07:31:00,62.3,60.8,30.07,NE,42,0.0,0.1,95,0.00,CLR,,0.00,WeatherDisplay:10.37,2013-05-01 11:31:00,
2013-05-01 07:36:00,62.4,60.9,30.07,NE,42,0.0,0.0,95,0.00,CLR,,0.00,WeatherDisplay:10.37,2013-05-01 11:36:00,
2013-05-01 07:41:00,62.5,61.0,30.07,NE,44,2.0,2.0,95,0.00,CLR,,0.00,WeatherDisplay:10.37,2013-05-01 11:41:00,
2013-05-01 07:46:00,62.6,61.1,30.08,NE,44,4.6,4.6,95,0.00,CLR,,0.00,WeatherDisplay:10.37,2013-05-01 11:46:00,
2013-05-01 07:51:00,62.7,61.2,30.08,ENE,61,2.3,0.0,95,0.00,CLR,,0.00,WeatherDisplay:10.37,2013-05-01 11:51:00,
2013-05-01 07:56:00,62.8,61.3,30.08,NE,46,5.8,0.0,95,0.00,CLR,,0.00,WeatherDisplay:10.37,2013-05-01 11:56:00,
2013-05-01 08:01:00,62.9,61.4,30.08,NE,41,6.0,6.0,95,0.00,CLR,,0.00,WeatherDisplay:10.37,2013-05-01 12:01:00,
2013-05-01 08:06:00,63.0,61.5,30.08,NE,39,1.2,1.2,95,0.00,CLR,,0.00,WeatherDisplay:10.37,2013-05-01 12:06:00,
2013-05-01 08:11:00,63.2,61.7,30.08,NNE,31,1.2,1.2,95,0.00,CLR,,0.00,WeatherDisplay:10.37,2013-05-01 12:11:00,
2013-05-01 08:16:00,63.3,61.8,30.09,NE,51,3.5,3.5,95,0.00,CLR,,0.00,WeatherDisplay:10.37,2013-05-01 12:16:00,
2013-05-01 08:21:00,63.4,61.9,30.09,ENE,64,5.0,5.0,95,0.00,CLR,,0.00,WeatherDisplay:10.37,2013-05-01 12:21:00,
2013-05-01 08:26:00,63.4,61.9,30.10,NE,54,3.5,3.5,95,0.00,CLR,,0.00,WeatherDisplay:10.37,2013-05-01 12:26:00,
2013-05-01 08:31:00,63.5,62.0,30.10,ENE,61,6.9,6.9,95,0.00,CLR,,0.00,WeatherDisplay:10.37,2013-05-01 12:31:00,
2013-05-01 08:36:00,63.6,62.1,30.10,NE,55,3.5,0.0,95,0.00,CLR,,0.00,WeatherDisplay:10.37,2013-05-01 12:36:00,
2013-05-01 08:41:00,63.8,62.3,30.11,NE,40,4.0,4.0,95,0.00,CLR,,0.00,WeatherDisplay:10.37,2013-05-01 12:41:00,
2013-05-01 08:46:00,63.9,62.4,30.10,NE,38,5.0,5.0,95,0.00,CLR,,0.00,WeatherDisplay:10.37,2013-05-01 12:46:00,
2013-05-01 08:51:00,64.0,62.2,30.11,ENE,67,4.6,4.6,94,0.00,CLR,,0.00,WeatherDisplay:10.37,2013-05-01 12:51:00,
2013-05-01 08:56:00,64.3,62.5,30.10,NE,51,9.2,9.2,94,0.00,CLR,,0.00,WeatherDisplay:10.37,2013-05-01 12:56:00,
2013-05-01 09:01:00,64.5,62.7,30.10,NNE,26,6.0,6.0,94,0.01,RA,,0.01,WeatherDisplay:10.37,2013-05-01 13:01:00,
2013-05-01 09:06:00,64.7,62.6,30.10,NE,36,10.4,10.4,93,0.01,RA,,0.01,WeatherDisplay:10.37,2013-05-01 13:06:00,
2013-05-01 09:11:00,64.9,62.8,30.10,NE,46,6.9,6.9,93,0.01,,,0.01,WeatherDisplay:10.37,2013-05-01 13:11:00,
2013-05-01 09:16:00,65.2,63.1,30.11,NE,40,5.0,5.0,93,0.01,CLR,,0.01,WeatherDisplay:10.37,2013-05-01 13:16:00,
2013-05-01 09:21:00,65.4,62.7,30.11,ESE,106,9.2,9.2,91,0.01,CLR,,0.01,WeatherDisplay:10.37,2013-05-01 13:21:00,
2013-05-01 09:26:00,65.6,62.9,30.11,NE,49,2.3,0.0,91,0.01,CLR,,0.01,WeatherDisplay:10.37,2013-05-01 13:26:00,
2013-05-01 09:31:00,65.8,62.8,30.10,NE,46,4.6,4.6,90,0.01,CLR,,0.01,WeatherDisplay:10.37,2013-05-01 13:31:00,
2013-05-01 09:36:00,65.9,62.9,30.11,NE,37,6.9,6.9,90,0.01,CLR,,0.01,WeatherDisplay:10.37,2013-05-01 13:36:00,
2013-05-01 09:41:00,66.1,62.8,30.11,ENE,59,3.5,3.5,89,0.01,CLR,,0.01,WeatherDisplay:10.37,2013-05-01 13:41:00,
2013-05-01 09:46:00,66.3,63.0,30.11,ENE,59,8.1,8.1,89,0.01,CLR,,0.01,WeatherDisplay:10.37,2013-05-01 13:46:00,
2013-05-01 09:51:00,66.4,62.7,30.11,East,87,8.1,8.1,88,0.01,CLR,,0.01,WeatherDisplay:10.37,2013-05-01 13:51:00,
2013-05-01 09:56:00,66.4,62.7,30.11,NE,42,8.1,8.1,88,0.01,CLR,,0.01,WeatherDisplay:10.37,2013-05-01 13:56:00,
2013-05-01 10:01:00,66.5,62.8,30.11,NE,47,6.9,6.9,88,0.00,CLR,,0.01,WeatherDisplay:10.37,2013-05-01 14:01:00,
2013-05-01 10:06:00,66.6,62.6,30.11,ENE,64,6.9,0.0,87,0.00,CLR,,0.01,WeatherDisplay:10.37,2013-05-01 14:06:00,
2013-05-01 10:11:00,66.6,62.6,30.10,NE,54,11.5,11.5,87,0.00,CLR,,0.01,WeatherDisplay:10.37,2013-05-01 14:11:00,
2013-05-01 10:16:00,66.8,62.8,30.10,NE,55,6.9,6.9,87,0.00,CLR,,0.01,WeatherDisplay:10.37,2013-05-01 14:16:00,
2013-05-01 10:21:00,67.0,62.7,30.11,NE,49,8.1,8.1,86,0.00,CLR,,0.01,WeatherDisplay:10.37,2013-05-01 14:21:00,
2013-05-01 10:26:00,67.2,62.9,30.10,NNE,33,9.2,9.2,86,0.00,CLR,,0.01,WeatherDisplay:10.37,2013-05-01 14:26:00,
2013-05-01 10:31:00,67.5,62.8,30.10,ENE,76,16.1,16.1,85,0.00,CLR,,0.01,WeatherDisplay:10.37,2013-05-01 14:31:00,
2013-05-01 10:36:00,67.6,62.6,30.10,NE,38,8.1,8.1,84,0.00,CLR,,0.01,WeatherDisplay:10.37,2013-05-01 14:36:00,
2013-05-01 10:41:00,67.7,63.0,30.10,ENE,59,4.6,0.0,85,0.00,CLR,,0.01,WeatherDisplay:10.37,2013-05-01 14:41:00,
2013-05-01 10:46:00,67.9,62.9,30.10,NE,53,8.1,8.1,84,0.00,CLR,,0.01,WeatherDisplay:10.37,2013-05-01 14:46:00,
2013-05-01 10:51:00,67.9,62.9,30.10,East,84,8.1,8.1,84,0.00,CLR,,0.01,WeatherDisplay:10.37,2013-05-01 14:51:00,
2013-05-01 10:56:00,67.9,62.9,30.10,ENE,69,5.8,5.8,84,0.00,CLR,,0.01,WeatherDisplay:10.37,2013-05-01 14:56:00,
2013-05-01 11:01:00,67.8,62.8,30.11,NE,38,4.6,4.6,84,0.00,CLR,,0.01,WeatherDisplay:10.37,2013-05-01 15:01:00,
2013-05-01 11:06:00,67.6,62.3,30.11,ENE,64,11.0,11.0,83,0.00,CLR,,0.01,WeatherDisplay:10.37,2013-05-01 15:06:00,
2013-05-01 11:11:00,67.4,62.4,30.12,NE,51,8.1,0.0,84,0.00,CLR,,0.01,WeatherDisplay:10.37,2013-05-01 15:11:00,
2013-05-01 11:16:00,67.5,62.2,30.12,NE,45,6.9,6.9,83,0.00,CLR,,0.01,WeatherDisplay:10.37,2013-05-01 15:16:00,
2013-05-01 11:21:00,67.6,62.6,30.12,NNE,25,3.5,3.5,84,0.00,CLR,,0.01,WeatherDisplay:10.37,2013-05-01 15:21:00,
2013-05-01 11:26:00,67.7,62.3,30.13,ENE,65,9.2,9.2,83,0.00,CLR,,0.01,WeatherDisplay:10.37,2013-05-01 15:26:00,
2013-05-01 11:31:00,67.6,62.3,30.13,East,90,11.5,11.5,83,0.00,CLR,,0.01,WeatherDisplay:10.37,2013-05-01 15:31:00,
2013-05-01 11:36:00,67.6,62.3,30.13,East,91,7.0,7.0,83,0.00,CLR,,0.01,WeatherDisplay:10.37,2013-05-01 15:36:00,
2013-05-01 11:41:00,67.6,62.3,30.13,ENE,64,6.9,6.9,83,0.00,CLR,,0.01,WeatherDisplay:10.37,2013-05-01 15:41:00,
2013-05-01 11:46:00,67.6,62.3,30.13,East,83,9.0,9.0,83,0.00,CLR,,0.01,WeatherDisplay:10.37,2013-05-01 15:46:00,
2013-05-01 11:51:00,67.7,62.3,30.13,NE,49,5.8,5.8,83,0.00,CLR,,0.01,WeatherDisplay:10.37,2013-05-01 15:51:00,
2013-05-01 11:56:00,67.8,62.4,30.13,NE,40,8.1,8.1,83,0.00,CLR,,0.01,WeatherDisplay:10.37,2013-05-01 15:56:00,
2013-05-01 12:01:00,67.8,62.4,30.13,ENE,78,4.0,4.0,83,0.00,CLR,,0.01,WeatherDisplay:10.37,2013-05-01 16:01:00,
2013-05-01 12:06:00,67.7,62.0,30.13,East,94,9.2,9.2,82,0.00,CLR,,0.01,WeatherDisplay:10.37,2013-05-01 16:06:00,
2013-05-01 12:11:00,67.6,61.9,30.13,ENE,71,4.6,4.6,82,0.00,CLR,,0.01,WeatherDisplay:10.37,2013-05-01 16:11:00,
2013-05-01 12:16:00,67.8,62.1,30.13,ESE,122,9.2,9.2,82,0.00,CLR,,0.01,WeatherDisplay:10.37,2013-05-01 16:16:00,
2013-05-01 12:21:00,68.2,62.5,30.13,East,85,8.1,8.1,82,0.00,CLR,,0.01,WeatherDisplay:10.37,2013-05-01 16:21:00,
2013-05-01 12:26:00,68.4,62.0,30.13,East,96,10.4,10.4,80,0.00,CLR,,0.01,WeatherDisplay:10.37,2013-05-01 16:26:00,
2013-05-01 12:31:00,68.7,62.3,30.13,East,88,11.5,11.5,80,0.00,CLR,,0.01,WeatherDisplay:10.37,2013-05-01 16:31:00,
2013-05-01 12:36:00,68.8,62.0,30.13,NE,46,9.2,9.2,79,0.00,CLR,,0.01,WeatherDisplay:10.37,2013-05-01 16:36:00,
2013-05-01 12:41:00,68.9,62.1,30.13,East,80,8.1,8.1,79,0.00,CLR,,0.01,WeatherDisplay:10.37,2013-05-01 16:41:00,
2013-05-01 12:46:00,69.0,62.2,30.13,NE,49,6.9,6.9,79,0.00,CLR,,0.01,WeatherDisplay:10.37,2013-05-01 16:46:00,
2013-05-01 12:51:00,69.2,62.4,30.13,ENE,60,9.2,9.2,79,0.00,CLR,,0.01,WeatherDisplay:10.37,2013-05-01 16:51:00,
2013-05-01 12:56:00,69.3,62.5,30.13,ENE,63,11.5,11.5,79,0.00,CLR,,0.01,WeatherDisplay:10.37,2013-05-01 16:56:00,
2013-05-01 13:01:00,69.2,62.0,30.13,East,86,9.2,9.2,78,0.00,CLR,,0.01,WeatherDisplay:10.37,2013-05-01 17:01:00,
2013-05-01 13:06:00,69.3,62.5,30.12,NE,38,7.0,7.0,79,0.00,CLR,,0.01,WeatherDisplay:10.37,2013-05-01 17:06:00,
2013-05-01 13:11:00,69.6,62.8,30.12,ENE,67,4.0,4.0,79,0.00,CLR,,0.01,WeatherDisplay:10.37,2013-05-01 17:11:00,
2013-05-01 13:16:00,69.7,62.9,30.12,NNE,33,0.0,0.0,79,0.00,CLR,,0.01,WeatherDisplay:10.37,2013-05-01 17:16:00,
2013-05-01 13:21:00,70.0,62.8,30.11,ENE,76,9.2,9.2,78,0.00,CLR,,0.01,WeatherDisplay:10.37,2013-05-01 17:21:00,
2013-05-01 13:26:00,70.5,62.9,30.11,North,5,9.2,9.2,77,0.00,CLR,,0.01,WeatherDisplay:10.37,2013-05-01 17:26:00,
2013-05-01 13:31:00,70.9,63.0,30.11,NE,51,12.0,12.0,76,0.00,CLR,,0.01,WeatherDisplay:10.37,2013-05-01 17:31:00,
2013-05-01 13:36:00,71.0,63.1,30.11,ENE,67,9.2,9.2,76,0.00,CLR,,0.01,WeatherDisplay:10.37,2013-05-01 17:36:00,
2013-05-01 13:41:00,71.3,63.3,30.11,ENE,69,11.5,11.5,76,0.00,CLR,,0.01,WeatherDisplay:10.37,2013-05-01 17:41:00,
2013-05-01 13:46:00,71.5,63.2,30.11,NNE,25,11.0,11.0,75,0.00,CLR,,0.01,WeatherDisplay:10.37,2013-05-01 17:46:00,
2013-05-01 13:51:00,71.3,62.6,30.10,NE,36,9.0,9.0,74,0.00,CLR,,0.01,WeatherDisplay:10.37,2013-05-01 17:51:00,
2013-05-01 13:56:00,70.9,62.6,30.10,NNE,12,10.4,10.4,75,0.00,CLR,,0.01,WeatherDisplay:10.37,2013-05-01 17:56:00,
2013-05-01 14:01:00,70.9,62.6,30.10,NNE,17,10.4,10.4,75,0.00,CLR,,0.01,WeatherDisplay:10.37,2013-05-01 18:01:00,
2013-05-01 14:06:00,71.1,63.1,30.11,NE,34,10.4,10.4,76,0.00,CLR,,0.01,WeatherDisplay:10.37,2013-05-01 18:06:00,
2013-05-01 14:11:00,71.2,62.5,30.11,NE,56,8.1,8.1,74,0.00,CLR,,0.01,WeatherDisplay:10.37,2013-05-01 18:11:00,
2013-05-01 14:16:00,71.3,63.0,30.10,NE,51,6.9,6.9,75,0.00,CLR,,0.01,WeatherDisplay:10.37,2013-05-01 18:16:00,
2013-05-01 14:21:00,71.3,62.6,30.10,NE,42,11.5,11.5,74,0.00,CLR,,0.01,WeatherDisplay:10.37,2013-05-01 18:21:00,
2013-05-01 14:26:00,71.1,62.0,30.10,NNE,33,11.5,11.5,73,0.00,CLR,,0.01,WeatherDisplay:10.37,2013-05-01 18:26:00,
2013-05-01 14:31:00,71.1,62.4,30.10,ENE,57,9.2,9.2,74,0.00,CLR,,0.01,WeatherDisplay:10.37,2013-05-01 18:31:00,
2013-05-01 14:36:00,70.8,62.1,30.10,ENE,78,11.5,11.5,74,0.00,CLR,,0.01,WeatherDisplay:10.37,2013-05-01 18:36:00,
2013-05-01 14:41:00,70.9,62.6,30.10,NE,55,8.1,8.1,75,0.00,CLR,,0.01,WeatherDisplay:10.37,2013-05-01 18:41:00,
2013-05-01 14:46:00,71.4,62.7,30.09,East,94,2.3,0.0,74,0.00,CLR,,0.01,WeatherDisplay:10.37,2013-05-01 18:46:00,
2013-05-01 14:51:00,71.9,62.8,30.09,NE,40,8.1,8.1,73,0.00,CLR,,0.01,WeatherDisplay:10.37,2013-05-01 18:51:00,
2013-05-01 14:56:00,72.2,62.7,30.09,ENE,67,11.5,11.5,72,0.00,CLR,,0.01,WeatherDisplay:10.37,2013-05-01 18:56:00,
2013-05-01 15:01:00,72.4,62.9,30.09,ENE,69,11.5,11.5,72,0.00,CLR,,0.01,WeatherDisplay:10.37,2013-05-01 19:01:00,
2013-05-01 15:06:00,72.9,62.9,30.09,East,81,8.1,8.1,71,0.00,CLR,,0.01,WeatherDisplay:10.37,2013-05-01 19:06:00,
2013-05-01 15:11:00,73.0,63.0,30.09,ESE,113,11.5,11.5,71,0.00,CLR,,0.01,WeatherDisplay:10.37,2013-05-01 19:11:00,
2013-05-01 15:16:00,72.5,62.2,30.09,East,90,10.4,10.4,70,0.00,CLR,,0.01,WeatherDisplay:10.37,2013-05-01 19:16:00,
2013-05-01 15:21:00,72.6,62.3,30.09,ENE,74,13.0,13.0,70,0.00,CLR,,0.01,WeatherDisplay:10.37,2013-05-01 19:21:00,
2013-05-01 15:26:00,72.6,62.3,30.08,ENE,76,7.0,7.0,70,0.00,CLR,,0.01,WeatherDisplay:10.37,2013-05-01 19:26:00,
2013-05-01 15:31:00,72.8,62.4,30.08,East,93,11.5,11.5,70,0.00,CLR,,0.01,WeatherDisplay:10.37,2013-05-01 19:31:00,
2013-05-01 15:36:00,73.0,62.6,30.08,ENE,76,0.0,1.0,70,0.00,CLR,,0.01,WeatherDisplay:10.37,2013-05-01 19:36:00,
2013-05-01 15:41:00,73.5,62.3,30.08,NNE,28,11.5,11.5,68,0.00,CLR,,0.01,WeatherDisplay:10.37,2013-05-01 19:41:00,
2013-05-01 15:46:00,73.2,62.0,30.08,East,82,9.2,9.2,68,0.00,CLR,,0.01,WeatherDisplay:10.37,2013-05-01 19:46:00,
2013-05-01 15:51:00,72.9,61.3,30.08,ENE,71,8.1,8.1,67,0.00,CLR,,0.01,WeatherDisplay:10.37,2013-05-01 19:51:00,
2013-05-01 15:56:00,73.1,61.9,30.08,ENE,67,1.2,0.0,68,0.00,CLR,,0.01,WeatherDisplay:10.37,2013-05-01 19:56:00,
2013-05-01 16:01:00,73.5,62.3,30.08,ENE,67,3.5,3.5,68,0.00,CLR,,0.01,WeatherDisplay:10.37,2013-05-01 20:01:00,
2013-05-01 16:06:00,73.6,62.0,30.08,East,82,0.0,0.0,67,0.00,CLR,,0.01,WeatherDisplay:10.37,2013-05-01 20:06:00,
2013-05-01 16:11:00,73.6,62.4,30.08,NNE,32,0.0,0.0,68,0.00,CLR,,0.01,WeatherDisplay:10.37,2013-05-01 20:11:00,
2013-05-01 16:16:00,74.0,62.8,30.08,NNE,27,3.0,3.0,68,0.00,CLR,,0.01,WeatherDisplay:10.37,2013-05-01 20:16:00,
2013-05-01 16:21:00,74.3,62.2,30.08,NE,55,9.2,9.2,66,0.00,CLR,,0.01,WeatherDisplay:10.37,2013-05-01 20:21:00,
2013-05-01 16:26:00,74.1,61.6,30.08,ENE,76,9.2,0.0,65,0.00,CLR,,0.01,WeatherDisplay:10.37,2013-05-01 20:26:00,
2013-05-01 16:31:00,73.9,61.8,30.08,ESE,109,0.0,0.0,66,0.00,CLR,,0.01,WeatherDisplay:10.37,2013-05-01 20:31:00,
2013-05-01 16:36:00,73.6,62.4,30.08,NE,40,1.2,0.0,68,0.00,CLR,,0.01,WeatherDisplay:10.37,2013-05-01 20:36:00,
2013-05-01 16:41:00,73.6,61.5,30.08,ENE,78,4.6,4.6,66,0.00,CLR,,0.01,WeatherDisplay:10.37,2013-05-01 20:41:00,
2013-05-01 16:46:00,73.4,61.8,30.08,East,82,7.0,7.0,67,0.00,CLR,,0.01,WeatherDisplay:10.37,2013-05-01 20:46:00,
2013-05-01 16:51:00,73.1,61.5,30.07,NE,53,5.8,5.8,67,0.00,CLR,,0.01,WeatherDisplay:10.37,2013-05-01 20:51:00,
2013-05-01 16:56:00,73.0,61.8,30.08,NE,56,0.0,0.0,68,0.00,CLR,,0.01,WeatherDisplay:10.37,2013-05-01 20:56:00,
2013-05-01 17:01:00,73.1,61.9,30.08,ENE,71,3.0,3.0,68,0.00,CLR,,0.01,WeatherDisplay:10.37,2013-05-01 21:01:00,
2013-05-01 17:06:00,73.1,61.9,30.08,NE,51,6.9,6.9,68,0.00,CLR,,0.01,WeatherDisplay:10.37,2013-05-01 21:06:00,
2013-05-01 17:11:00,73.1,61.9,30.08,ENE,75,9.0,9.0,68,0.00,CLR,,0.01,WeatherDisplay:10.37,2013-05-01 21:11:00,
2013-05-01 17:16:00,73.0,61.8,30.08,NNE,32,9.0,9.0,68,0.00,CLR,,0.01,WeatherDisplay:10.37,2013-05-01 21:16:00,
2013-05-01 17:21:00,72.9,61.7,30.08,ENE,74,4.0,4.0,68,0.00,CLR,,0.01,WeatherDisplay:10.37,2013-05-01 21:21:00,
2013-05-01 17:26:00,72.8,61.6,30.08,NE,45,9.2,9.2,68,0.00,CLR,,0.01,WeatherDisplay:10.37,2013-05-01 21:26:00,
2013-05-01 17:31:00,72.7,61.1,30.08,NE,52,10.4,10.4,67,0.00,CLR,,0.01,WeatherDisplay:10.37,2013-05-01 21:31:00,
2013-05-01 17:36:00,72.6,61.4,30.08,ENE,78,7.0,7.0,68,0.00,CLR,,0.01,WeatherDisplay:10.37,2013-05-01 21:36:00,
2013-05-01 17:41:00,72.2,61.0,30.08,ENE,78,5.0,5.0,68,0.00,CLR,,0.01,WeatherDisplay:10.37,2013-05-01 21:41:00,
2013-05-01 17:46:00,71.9,61.2,30.08,NE,48,9.2,9.2,69,0.00,CLR,,0.01,WeatherDisplay:10.37,2013-05-01 21:46:00,
2013-05-01 17:51:00,71.7,61.4,30.07,North,11,7.0,7.0,70,0.00,CLR,,0.01,WeatherDisplay:10.37,2013-05-01 21:51:00,
2013-05-01 17:56:00,71.5,60.8,30.08,NE,53,11.5,11.5,69,0.00,CLR,,0.01,WeatherDisplay:10.37,2013-05-01 21:56:00,
2013-05-01 18:01:00,71.3,61.0,30.08,NE,54,11.5,11.5,70,0.00,CLR,,0.01,WeatherDisplay:10.37,2013-05-01 22:01:00,
2013-05-01 18:06:00,71.0,60.7,30.08,NE,42,8.1,8.1,70,0.00,CLR,,0.01,WeatherDisplay:10.37,2013-05-01 22:06:00,
2013-05-01 18:11:00,70.8,60.5,30.08,East,80,8.1,8.1,70,0.00,CLR,,0.01,WeatherDisplay:10.37,2013-05-01 22:11:00,
2013-05-01 18:16:00,70.4,60.5,30.08,ENE,61,8.1,8.1,71,0.00,CLR,,0.01,WeatherDisplay:10.37,2013-05-01 22:16:00,
2013-05-01 18:21:00,70.2,60.7,30.08,NE,41,0.0,0.0,72,0.00,CLR,,0.01,WeatherDisplay:10.37,2013-05-01 22:21:00,
2013-05-01 18:26:00,70.0,60.2,30.08,NE,46,5.8,5.8,71,0.00,CLR,,0.01,WeatherDisplay:10.37,2013-05-01 22:26:00,
2013-05-01 18:31:00,69.7,60.3,30.08,NNE,17,6.9,6.9,72,0.00,CLR,,0.01,WeatherDisplay:10.37,2013-05-01 22:31:00,
2013-05-01 18:36:00,69.3,59.9,30.08,NE,48,6.9,6.9,72,0.00,CLR,,0.01,WeatherDisplay:10.37,2013-05-01 22:36:00,
2013-05-01 18:41:00,69.0,59.6,30.08,NE,42,3.5,3.5,72,0.00,CLR,,0.01,WeatherDisplay:10.37,2013-05-01 22:41:00,
2013-05-01 18:46:00,68.8,59.8,30.08,NNE,33,5.8,5.8,73,0.00,CLR,,0.01,WeatherDisplay:10.37,2013-05-01 22:46:00,
2013-05-01 18:51:00,68.5,59.5,30.08,ENE,77,2.3,2.3,73,0.00,CLR,,0.01,WeatherDisplay:10.37,2013-05-01 22:51:00,
2013-05-01 18:56:00,68.2,59.2,30.08,ENE,76,9.2,9.2,73,0.00,CLR,,0.01,WeatherDisplay:10.37,2013-05-01 22:56:00,
2013-05-01 19:01:00,67.9,58.9,30.08,ENE,57,4.0,4.0,73,0.00,CLR,,0.01,WeatherDisplay:10.37,2013-05-01 23:01:00,
2013-05-01 19:06:00,67.8,59.2,30.08,ENE,64,7.0,7.0,74,0.00,CLR,,0.01,WeatherDisplay:10.37,2013-05-01 23:06:00,
2013-05-01 19:11:00,67.7,59.1,30.09,ENE,65,6.0,6.0,74,0.00,CLR,,0.01,WeatherDisplay:10.37,2013-05-01 23:11:00,
2013-05-01 19:16:00,67.5,59.3,30.09,NNE,30,8.1,8.1,75,0.00,CLR,,0.01,WeatherDisplay:10.37,2013-05-01 23:16:00,
2013-05-01 19:21:00,67.4,59.2,30.09,ENE,61,4.6,4.6,75,0.00,CLR,,0.01,WeatherDisplay:10.37,2013-05-01 23:21:00,
2013-05-01 19:26:00,67.4,59.6,30.09,ENE,59,0.0,0.0,76,0.00,CLR,,0.01,WeatherDisplay:10.37,2013-05-01 23:26:00,
2013-05-01 19:31:00,67.3,59.5,30.09,East,82,3.0,3.1,76,0.00,CLR,,0.01,WeatherDisplay:10.37,2013-05-01 23:31:00,
2013-05-01 19:36:00,67.2,59.4,30.09,ENE,66,0.0,0.0,76,0.00,CLR,,0.01,WeatherDisplay:10.37,2013-05-01 23:36:00,
2013-05-01 19:41:00,67.2,59.4,30.09,NE,56,0.0,0.0,76,0.00,CLR,,0.01,WeatherDisplay:10.37,2013-05-01 23:41:00,
2013-05-01 19:46:00,67.1,59.6,30.09,ENE,63,0.0,0.0,77,0.00,CLR,,0.01,WeatherDisplay:10.37,2013-05-01 23:46:00,
2013-05-01 19:51:00,66.9,59.5,30.09,NE,41,1.2,1.2,77,0.00,CLR,,0.01,WeatherDisplay:10.37,2013-05-01 23:51:00,
2013-05-01 19:56:00,66.8,59.7,30.09,NE,46,0.0,0.0,78,0.00,CLR,,0.01,WeatherDisplay:10.37,2013-05-01 23:56:00,
2013-05-01 20:01:00,66.7,59.6,30.09,NE,34,4.6,0.0,78,0.00,CLR,,0.01,WeatherDisplay:10.37,2013-05-02 00:01:00,
2013-05-01 20:06:00,66.6,59.5,30.09,NNE,30,0.0,0.0,78,0.00,CLR,,0.01,WeatherDisplay:10.37,2013-05-02 00:06:00,
2013-05-01 20:11:00,66.6,59.5,30.09,NNE,26,0.0,0.0,78,0.00,CLR,,0.01,WeatherDisplay:10.37,2013-05-02 00:11:00,
2013-05-01 20:16:00,66.5,59.8,30.09,ENE,68,0.0,0.0,79,0.00,CLR,,0.01,WeatherDisplay:10.37,2013-05-02 00:16:00,
2013-05-01 20:21:00,66.4,59.7,30.09,ENE,62,0.0,0.0,79,0.00,CLR,,0.01,WeatherDisplay:10.37,2013-05-02 00:21:00,
2013-05-01 20:26:00,66.3,59.6,30.09,ENE,59,0.0,0.0,79,0.00,CLR,,0.01,WeatherDisplay:10.37,2013-05-02 00:26:00,
2013-05-01 20:31:00,66.2,59.8,30.09,ENE,59,0.0,0.0,80,0.00,CLR,,0.01,WeatherDisplay:10.37,2013-05-02 00:31:00,
2013-05-01 20:36:00,66.1,59.7,30.09,ENE,59,0.0,0.0,80,0.00,CLR,,0.01,WeatherDisplay:10.37,2013-05-02 00:36:00,
2013-05-01 20:41:00,66.0,59.7,30.09,ENE,59,0.0,0.0,80,0.00,CLR,,0.01,WeatherDisplay:10.37,2013-05-02 00:41:00,
2013-05-01 20:46:00,65.9,59.6,30.09,NE,53,0.0,0.0,80,0.00,CLR,,0.01,WeatherDisplay:10.37,2013-05-02 00:46:00,
2013-05-01 20:51:00,65.9,59.9,30.09,NE,53,0.0,0.0,81,0.00,CLR,,0.01,WeatherDisplay:10.37,2013-05-02 00:51:00,
2013-05-01 20:56:00,65.9,59.9,30.09,NE,50,0.0,0.0,81,0.00,CLR,,0.01,WeatherDisplay:10.37,2013-05-02 00:56:00,
2013-05-01 21:01:00,65.8,59.8,30.09,NE,49,0.0,0.0,81,0.00,CLR,,0.01,WeatherDisplay:10.37,2013-05-02 01:01:00,
2013-05-01 21:06:00,65.7,60.1,30.09,NE,49,0.0,0.0,82,0.00,CLR,,0.01,WeatherDisplay:10.37,2013-05-02 01:06:00,
2013-05-01 21:11:00,65.6,60.0,30.09,NE,49,0.0,0.0,82,0.00,CLR,,0.01,WeatherDisplay:10.37,2013-05-02 01:11:00,
2013-05-01 21:16:00,65.6,60.0,30.09,NE,49,0.0,0.0,82,0.00,CLR,,0.01,WeatherDisplay:10.37,2013-05-02 01:16:00,
2013-05-01 21:21:00,65.5,59.9,30.09,NE,38,0.0,0.0,82,0.00,CLR,,0.01,WeatherDisplay:10.37,2013-05-02 01:21:00,
2013-05-01 21:26:00,65.5,60.2,30.09,NNE,33,0.0,0.0,83,0.00,CLR,,0.01,WeatherDisplay:10.37,2013-05-02 01:26:00,
2013-05-01 21:31:00,65.5,60.2,30.10,NNE,32,0.0,0.0,83,0.00,CLR,,0.01,WeatherDisplay:10.37,2013-05-02 01:31:00,
2013-05-01 21:36:00,65.5,60.2,30.10,NNE,33,1.2,0.0,83,0.00,CLR,,0.01,WeatherDisplay:10.37,2013-05-02 01:36:00,
2013-05-01 21:41:00,65.5,60.2,30.10,ENE,65,0.0,0.0,83,0.00,CLR,,0.01,WeatherDisplay:10.37,2013-05-02 01:41:00,
2013-05-01 21:46:00,65.6,60.3,30.10,ENE,64,0.0,0.0,83,0.00,CLR,,0.01,WeatherDisplay:10.37,2013-05-02 01:46:00,
2013-05-01 21:51:00,65.6,60.3,30.10,ENE,64,0.0,0.0,83,0.00,CLR,,0.01,WeatherDisplay:10.37,2013-05-02 01:51:00,
2013-05-01 21:56:00,65.6,60.3,30.11,ENE,64,0.0,0.0,83,0.00,CLR,,0.01,WeatherDisplay:10.37,2013-05-02 01:56:00,
2013-05-01 22:01:00,65.6,60.3,30.11,ENE,64,0.0,0.0,83,0.00,CLR,,0.01,WeatherDisplay:10.37,2013-05-02 02:01:00,
2013-05-01 22:06:00,65.7,60.4,30.11,ENE,67,0.0,0.0,83,0.00,CLR,,0.01,WeatherDisplay:10.37,2013-05-02 02:06:00,
2013-05-01 22:11:00,65.7,60.4,30.11,ENE,65,0.0,0.0,83,0.00,CLR,,0.01,WeatherDisplay:10.37,2013-05-02 02:11:00,
2013-05-01 22:16:00,65.8,60.5,30.11,ENE,65,0.0,0.0,83,0.00,CLR,,0.01,WeatherDisplay:10.37,2013-05-02 02:16:00,
2013-05-01 22:21:00,65.8,60.5,30.11,NE,40,2.0,2.0,83,0.00,CLR,,0.01,WeatherDisplay:10.37,2013-05-02 02:21:00,
2013-05-01 22:26:00,65.8,60.5,30.11,NE,40,0.0,0.0,83,0.00,CLR,,0.01,WeatherDisplay:10.37,2013-05-02 02:26:00,
2013-05-01 22:31:00,65.9,60.6,30.11,NE,42,0.0,0.0,83,0.00,CLR,,0.01,WeatherDisplay:10.37,2013-05-02 02:31:00,
2013-05-01 22:36:00,65.9,60.2,30.11,NNE,12,0.0,0.0,82,0.00,CLR,,0.01,WeatherDisplay:10.37,2013-05-02 02:36:00,
2013-05-01 22:41:00,66.0,60.3,30.11,NE,37,1.2,0.0,82,0.00,CLR,,0.01,WeatherDisplay:10.37,2013-05-02 02:41:00,
2013-05-01 22:46:00,66.0,60.3,30.10,NE,36,0.0,0.0,82,0.00,CLR,,0.01,WeatherDisplay:10.37,2013-05-02 02:46:00,
2013-05-01 22:51:00,66.1,60.4,30.11,NE,49,0.0,0.0,82,0.00,CLR,,0.01,WeatherDisplay:10.37,2013-05-02 02:51:00,
2013-05-01 22:56:00,66.1,60.4,30.10,NE,42,0.0,0.0,82,0.00,CLR,,0.01,WeatherDisplay:10.37,2013-05-02 02:56:00,
2013-05-01 23:01:00,66.1,60.1,30.10,NNE,33,4.0,4.0,81,0.00,CLR,,0.01,WeatherDisplay:10.37,2013-05-02 03:01:00,
2013-05-01 23:06:00,66.0,60.0,30.10,ENE,72,9.0,9.0,81,0.00,CLR,,0.01,WeatherDisplay:10.37,2013-05-02 03:06:00,
2013-05-01 23:11:00,66.1,60.4,30.10,NNE,30,1.2,0.0,82,0.00,CLR,,0.01,WeatherDisplay:10.37,2013-05-02 03:11:00,
2013-05-01 23:16:00,66.0,60.3,30.10,ENE,69,8.1,8.1,82,0.00,CLR,,0.01,WeatherDisplay:10.37,2013-05-02 03:16:00,
2013-05-01 23:21:00,66.1,60.4,30.10,NE,44,3.0,3.0,82,0.00,CLR,,0.01,WeatherDisplay:10.37,2013-05-02 03:21:00,
2013-05-01 23:26:00,66.0,60.7,30.10,ENE,65,6.9,6.9,83,0.00,CLR,,0.01,WeatherDisplay:10.37,2013-05-02 03:26:00,
2013-05-01 23:31:00,65.7,60.7,30.10,NE,46,5.8,0.0,84,0.01,RA,,0.02,WeatherDisplay:10.37,2013-05-02 03:31:00,
2013-05-01 23:36:00,65.6,61.0,30.10,NE,42,0.0,0.0,85,0.01,RA,,0.02,WeatherDisplay:10.37,2013-05-02 03:36:00,
2013-05-01 23:41:00,65.3,61.0,30.10,NE,41,0.0,0.0,86,0.01,,,0.02,WeatherDisplay:10.37,2013-05-02 03:41:00,
2013-05-01 23:46:00,65.0,61.0,30.09,ENE,64,0.0,0.0,87,0.01,CLR,,0.02,WeatherDisplay:10.37,2013-05-02 03:46:00,
2013-05-01 23:51:00,64.8,60.8,30.09,ENE,64,0.0,0.0,87,0.01,CLR,,0.02,WeatherDisplay:10.37,2013-05-02 03:51:00,
2013-05-01 23:56:00,64.6,61.0,30.09,North,360,0.0,0.0,88,0.01,CLR,,0.02,WeatherDisplay:10.37,2013-05-02 03:56:00,